Theta_e
301 293 289 292 295 294 291 291 289 292 295 294 294 294 297 301 302 302 304 305 306 307 310 312 313 316 317 318 319 319 322 327 330 331 332 333 332 331 330 331 332 331 331 331
296 291 295 295 294 294 293 289 289 292 296 295 293 292 296 299 300 302 303 303 304 306 308 310 312 315 315 315 315 317 319 324 327 330 331 332 331 332 331 331 330 331 330 330
292 294 298 294 291 289 291 289 288 288 294 296 294 291 293 297 300 301 303 304 305 305 306 308 309 311 313 313 315 316 317 319 324 328 329 329 329 329 328 330 331 331 330 329
294 299 296 293 290 291 286 292 291 289 288 283 293 282 291 295 296 299 301 302 304 305 306 307 308 308 310 314 318 317 317 318 321 326 326 326 324 322 325 327 330 332 334 329
291 294 294 292 292 294 289 293 291 290 288 287 287 284 289 294 293 296 298 301 303 304 305 305 307 309 311 315 316 317 317 317 319 321 324 325 324 324 324 324 328 330 332 333
294 299 297 296 297 296 295 292 291 291 288 281 285 284 286 290 293 295 298 299 301 303 305 306 309 311 311 315 315 315 314 314 315 316 318 320 321 322 323 324 325 327 328 329
291 293 296 298 293 295 293 290 283 280 280 280 289 285 288 294 296 296 296 298 301 302 303 305 306 308 309 311 312 314 315 314 315 318 318 318 320 321 321 323 324 323 324 325
283 282 291 296 293 290 290 289 283 277 279 282 288 282 288 296 298 299 299 299 300 302 304 306 307 308 309 309 309 310 310 310 309 312 317 322 323 321 322 322 323 323 324 324
284 284 294 296 296 295 290 285 292 284 284 280 285 289 294 297 296 297 298 299 300 302 304 304 305 307 308 307 307 307 306 306 305 306 308 309 311 314 320 320 321 322 322 322
289 283 292 294 296 295 293 295 284 286 277 276 282 285 287 292 294 296 297 298 300 302 302 303 303 303 304 305 304 304 304 303 303 304 305 305 305 305 306 307 307 307 308 308
291 287 287 292 289 288 289 287 288 289 285 279 278 283 294 294 296 296 298 299 301 302 302 302 302 302 302 302 302 302 302 302 302 303 303 303 303 303 304 304 304 304 305 304
292 286 282 286 293 295 293 290 290 283 282 284 283 285 296 296 297 298 298 300 301 303 303 303 302 300 300 300 300 300 300 299 299 300 301 300 300 301 301 301 301 302 302 303
291 284 279 282 287 292 288 290 292 291 289 284 281 284 296 297 298 298 298 299 301 301 301 301 300 299 300 300 299 298 297 296 296 297 298 297 296 297 297 297 298 299 300 300
290 286 283 278 282 285 285 288 289 289 284 284 285 287 292 294 295 297 299 300 300 300 300 300 299 300 300 300 298 296 294 294 294 294 294 294 293 293 294 295 295 296 297 297
285 279 283 282 284 284 283 285 287 287 288 284 287 288 292 295 296 298 299 300 300 299 299 299 299 300 299 296 294 293 292 291 291 291 291 290 290 290 291 292 292 293 294 294
286 278 281 277 282 282 279 281 286 286 286 287 288 288 296 299 299 298 299 299 298 299 299 299 300 299 296 294 292 289 289 288 289 288 287 287 287 287 287 287 289 290 291 292
283 281 278 275 280 279 275 281 284 287 289 287 282 287 293 293 296 298 298 298 298 299 300 299 299 297 294 289 287 286 285 286 285 284 284 283 283 283 284 284 286 288 288 289
282 281 281 275 277 269 280 287 286 284 289 290 290 291 293 294 297 298 288 291 295 298 300 299 297 291 285 283 282 283 283 282 281 281 280 280 280 280 281 282 283 284 286 286
285 282 277 274 274 278 280 283 282 281 285 284 285 292 294 293 294 290 283 283 282 283 284 284 284 282 280 278 279 280 280 279 278 277 277 277 277 277 278 279 280 281 282 283
285 285 279 277 272 270 279 281 279 279 279 277 278 279 279 283 285 284 277 278 277 277 278 279 278 276 275 274 276 277 276 275 273 273 274 275 275 275 276 277 278 279 280 280
278 279 275 276 274 278 277 274 279 277 277 274 274 274 275 277 275 275 275 273 273 273 273 275 274 272 271 272 273 273 272 270 271 272 272 272 273 274 275 276 276 276 277 278
277 276 276 277 274 272 272 275 278 273 273 272 272 272 272 272 271 270 270 270 270 269 270 271 271 270 270 270 270 269 268 269 269 270 270 270 271 272 274 273 274 275 276 276
276 279 278 275 276 269 270 270 271 272 270 269 270 271 271 270 268 268 267 267 267 267 267 268 268 268 268 267 268 266 266 267 267 268 268 269 270 271 271 272 272 272 274 274
272 271 274 271 269 267 268 269 270 270 269 269 269 270 270 268 268 267 267 266 266 265 265 266 266 265 265 266 266 265 266 266 266 266 266 268 268 269 270 270 271 272 272 272
269 270 272 266 265 265 266 267 268 268 269 268 267 267 267 267 266 266 265 265 265 265 265 265 264 264 264 264 264 265 265 264 264 264 265 266 266 267 267 268 269 270 271 272
265 267 269 270 268 267 265 266 267 266 265 266 266 264 264 265 264 265 264 264 264 263 264 263 263 263 263 263 263 264 264 264 263 262 263 264 264 264 266 266 267 270 271 272
Wind_Speed
13 11 15 19 19 18 4 12 14 12 5 7 17 20 20 18 18 16 16 15 15 17 16 17 16 13 12 12 11 12 12 12 9 8 9 9 10 10 8 10 14 11 12 14
8 22 16 14 16 19 19 14 14 4 4 6 13 20 19 19 21 21 21 19 18 17 17 16 14 13 15 14 13 14 14 13 11 8 8 9 9 9 10 10 11 13 12 12
20 3 21 18 16 19 19 20 15 10 2 10 13 23 22 20 24 23 22 21 20 20 19 17 17 16 14 14 13 13 13 14 12 12 8 8 8 7 7 8 10 12 14 13
16 22 14 16 19 18 20 14 17 15 6 9 7 14 16 11 18 15 18 20 19 20 18 16 14 13 12 9 8 10 11 12 12 13 10 12 10 10 9 9 8 8 13 13
14 10 23 20 18 17 11 13 12 14 14 11 18 11 12 12 18 15 15 13 15 16 15 16 14 11 10 6 6 8 9 10 11 10 11 9 11 8 8 7 8 7 7 10
22 8 13 24 18 15 6 8 7 6 7 10 18 17 19 17 18 13 10 10 14 14 12 12 8 4 7 7 7 8 8 9 9 9 11 12 12 10 7 7 5 5 5 7
13 24 11 12 15 14 17 15 6 7 8 14 5 15 26 5 8 6 6 8 9 8 10 10 11 9 8 8 8 6 7 9 6 9 10 11 11 11 11 9 6 7 6 6
13 11 26 16 20 12 20 16 7 10 11 11 14 12 15 4 9 13 12 7 9 9 7 9 9 6 6 5 5 4 3 3 3 3 3 4 7 6 7 8 7 6 6 6
12 21 10 22 19 19 13 18 20 15 1 2 11 19 18 16 12 7 9 12 13 11 6 7 6 7 6 6 5 4 4 3 3 3 2 3 2 1 2 3 4 4 5 4
12 8 17 18 17 21 24 11 13 12 9 17 15 21 16 3 5 8 14 15 13 9 7 7 6 6 5 5 5 4 4 4 4 4 3 3 3 3 3 2 3 3 4 5
17 7 8 11 20 21 16 16 10 9 12 11 14 14 18 17 14 12 11 9 10 10 7 7 7 6 6 6 6 5 4 4 4 3 3 4 4 4 4 3 4 4 4 5
22 7 19 15 8 20 24 26 22 10 15 12 17 17 7 2 6 8 12 12 7 6 8 9 8 8 7 7 6 5 4 4 3 3 3 3 3 3 4 4 4 5 5 5
15 7 10 10 17 15 13 23 24 24 14 18 13 14 15 19 19 13 10 10 8 8 7 8 9 9 9 8 6 5 3 3 3 3 2 3 5 5 4 4 5 5 5 5
4 10 9 14 11 9 14 22 19 19 15 17 18 22 25 19 20 15 12 9 10 9 9 9 10 10 9 7 6 5 4 3 2 1 2 3 4 4 4 4 5 5 5 4
3 5 9 15 14 14 15 17 18 25 23 21 23 24 26 22 19 17 10 11 11 9 11 13 12 10 9 7 5 3 2 3 4 2 3 4 5 5 6 5 5 6 5 4
10 5 4 8 15 14 18 17 19 14 15 17 19 23 27 20 16 18 16 9 7 12 14 11 11 11 9 7 3 2 3 4 5 5 5 6 6 7 7 8 7 7 7 5
8 5 7 13 10 10 14 17 18 24 22 16 15 23 23 25 22 15 13 14 11 13 12 13 12 10 7 5 3 3 4 5 6 6 7 8 9 8 8 9 9 7 7 7
6 5 4 8 4 12 10 14 20 23 22 21 22 21 20 20 23 10 13 8 11 10 8 2 6 9 8 7 6 4 5 6 6 8 9 10 10 9 8 9 9 9 8 8
14 7 5 6 10 9 10 14 5 8 17 10 11 18 16 13 17 3 13 14 13 15 15 14 13 10 9 10 8 6 6 6 8 10 10 10 12 12 10 9 10 11 10 10
16 14 8 8 10 14 18 8 4 1 11 10 11 11 13 11 6 4 13 13 13 14 14 11 11 12 13 13 11 9 9 10 10 10 11 12 11 12 10 10 11 10 10 11
6 9 15 14 12 8 5 3 2 5 4 9 11 12 12 6 7 9 11 12 12 12 14 11 12 12 12 12 10 10 10 12 12 11 10 10 12 14 12 11 11 10 11 11
11 7 9 9 12 18 4 4 9 5 7 8 8 8 8 8 9 10 10 11 12 12 13 12 10 10 11 11 10 10 10 11 11 11 10 9 11 10 11 12 12 11 10 11
9 7 8 2 3 7 9 7 7 5 6 5 4 5 5 7 7 8 8 9 10 11 11 10 8 8 10 11 10 10 10 11 12 11 11 11 11 9 10 11 12 9 8 9
4 2 3 4 6 3 2 5 8 7 7 6 5 5 6 6 6 7 7 8 7 8 9 8 9 10 10 10 10 9 10 11 11 12 12 11 10 12 10 8 8 8 7 7
3 2 7 1 6 4 3 2 5 7 6 7 7 9 9 8 8 8 8 8 7 8 8 8 9 9 9 9 9 9 9 9 10 11 11 11 9 11 11 9 9 9 10 9
1 2 4 2 8 3 5 5 6 7 7 7 7 9 11 9 9 8 7 7 7 8 9 9 10 9 10 9 9 10 10 10 11 11 9 9 9 9 9 9 10 14 19 19
Wind_Direction
198 210 211 213 217 237 280 225 234 227 225 251 241 253 257 251 249 254 245 238 237 238 245 248 246 241 230 223 225 220 218 218 211 205 208 218 217 224 228 230 228 222 223 226
200 229 223 228 225 232 243 243 231 237 238 234 268 262 263 254 250 244 240 246 248 249 246 240 241 237 231 233 237 229 220 215 207 211 211 220 223 219 220 226 232 227 221 218
220 200 212 226 217 219 229 229 234 239 197 249 281 274 254 246 238 238 239 242 246 243 245 245 241 236 237 245 238 234 227 223 213 210 209 219 232 239 226 218 216 219 224 220
243 238 234 218 223 217 236 232 245 250 232 251 190 282 272 258 223 216 234 238 239 244 246 248 253 257 244 228 242 238 235 230 225 212 217 221 221 229 229 228 224 219 201 208
210 198 219 228 216 216 247 236 208 221 236 268 247 264 264 230 243 222 201 224 234 236 237 239 239 241 246 242 211 230 230 228 226 221 222 221 232 246 253 252 232 220 213 215
233 213 225 232 226 226 188 160 163 201 224 244 225 223 265 241 254 251 230 220 221 229 238 245 254 254 223 206 214 229 231 233 231 228 228 231 238 237 244 246 249 245 233 231
220 240 226 213 213 203 192 169 182 204 202 241 203 218 247 335 284 326 309 271 207 240 232 232 235 213 219 206 215 222 228 235 229 239 239 240 241 249 250 245 244 242 236 235
219 219 221 184 209 188 208 216 206 216 220 257 208 237 236 251 285 270 229 216 216 230 230 225 224 222 228 201 218 214 203 193 223 235 251 261 245 242 244 245 253 255 251 254
217 232 211 216 202 207 194 213 225 273 145 295 233 251 274 268 247 253 253 237 240 241 238 232 249 236 201 182 181 188 159 133 98 81 92 82 60 34 286 310 290 279 322 334
243 269 223 204 209 220 222 189 201 221 224 230 238 238 245 155 215 252 252 254 259 256 210 218 189 183 181 171 154 142 125 117 103 95 83 76 60 47 36 44 31 0 339 325
227 235 226 200 202 197 211 220 223 222 231 234 252 249 245 254 255 248 243 251 258 257 207 200 192 180 173 158 152 138 129 119 97 76 72 67 53 39 46 47 30 13 349 353
209 232 237 218 209 230 214 212 201 211 201 230 257 255 263 67 14 323 268 265 265 250 210 206 187 171 169 170 156 141 115 94 61 49 48 55 43 33 36 26 10 0 351 343
196 225 263 248 241 222 230 230 220 227 238 210 218 252 246 255 261 248 255 255 221 233 213 189 183 184 179 169 158 141 115 86 45 35 34 50 33 19 17 11 356 349 342 338
356 230 240 234 264 316 229 234 222 237 224 234 247 258 260 255 266 254 248 242 234 212 201 197 190 192 183 172 169 156 129 61 12 27 47 48 20 359 352 341 337 331 327 331
83 317 267 295 286 293 274 259 272 245 245 244 245 242 258 263 256 263 247 250 243 217 206 205 197 190 175 175 161 147 103 22 338 3 39 32 10 355 349 336 332 320 319 320
188 221 199 298 313 343 331 305 252 238 276 283 273 291 275 279 284 286 264 222 251 242 229 213 199 187 183 175 150 72 29 10 345 6 13 10 2 355 352 339 329 324 319 324
178 194 193 250 244 310 309 290 259 251 237 232 246 258 267 269 270 280 292 304 266 253 240 213 197 176 153 126 101 85 24 13 10 11 12 5 357 351 351 338 319 323 312 313
173 207 233 268 149 248 268 272 292 283 266 250 243 246 261 253 269 291 37 352 329 296 269 149 112 91 79 57 27 24 41 37 24 20 10 360 348 339 333 341 334 326 321 313
216 203 230 242 253 274 280 278 327 339 271 354 303 267 249 298 299 115 37 38 30 43 42 51 54 66 59 39 8 360 29 40 34 21 360 353 347 329 347 337 336 333 321 313
210 213 205 234 261 256 262 125 24 282 258 21 1 358 346 342 256 94 33 31 36 40 42 46 53 52 38 20 5 18 19 23 21 6 352 346 347 325 332 339 335 330 317 309
171 212 219 225 242 266 47 4 272 186 312 18 22 12 19 53 31 40 37 40 35 39 32 38 50 48 36 19 13 27 22 9 354 347 349 350 339 332 329 341 331 327 320 315
218 207 215 231 236 251 16 154 223 40 68 22 31 22 50 57 52 49 44 36 28 29 31 32 42 45 36 26 21 24 21 353 348 342 345 348 345 337 330 336 329 329 317 308
242 251 239 271 296 36 13 66 78 45 68 44 25 32 66 77 68 59 50 42 37 30 28 22 30 36 38 22 19 14 2 349 344 338 345 349 343 331 329 333 334 319 326 318
142 104 194 126 148 107 286 64 62 64 67 50 37 45 61 80 72 67 56 45 33 31 28 13 24 27 24 13 9 7 355 347 342 343 340 337 336 331 331 326 319 316 321 322
13 144 161 107 134 123 256 75 77 77 80 83 62 47 47 58 50 47 43 38 28 29 19 15 21 17 10 360 357 352 350 345 344 339 334 336 334 329 325 319 316 308 303 308
351 87 217 56 126 87 127 87 58 75 61 44 59 64 50 45 43 38 41 27 14 18 15 5 10 359 351 348 344 346 347 345 340 331 335 331 326 322 316 314 307 296 302 304